Regional Weather Roundup
Issued by NWS

Home | Current Version | Previous Version | Graphics & Text | Print | Product List | Glossary On
Versions: 1 2 3 4 5 6 7 8 9 10 11 12 13 14 15 16 17 18 19 20 21 22 23 24 25 26 27 28 29 30 31 32 33 34 35 36 37 38 39 40 41 42 43 44 45 46 47 48 49 50
000
ASUS43 KFSD 221302
RWRSD

WEATHER ROUNDUP FOR SOUTH DAKOTA
NATIONAL WEATHER SERVICE SIOUX FALLS SD
800 AM CDT TUE AUG 22 2017

NOTE: "FAIR" INDICATES FEW OR NO CLOUDS BELOW 12,000 FEET WITH NO
SIGNIFICANT WEATHER AND/OR OBSTRUCTIONS TO VISIBILITY.


SDZ001>005-009-010-012>017-221400-
NORTHWEST AND NORTH CENTRAL SOUTH DAKOTA

CITY           SKY/WX    TMP DP  RH WIND       PRES   REMARKS
BUFFALO          N/A     52  40  63 CALM      30.17S
FAITH            N/A     55  46  71 N6        30.23R
MOBRIDGE       MOSUNNY   53  48  83 N5        30.18R
$$

SDZ012>016-024>037-041>051-057-063-072>074-221400-
SOUTHWEST AND SOUTH CENTRAL SOUTH DAKOTA

CITY           SKY/WX    TMP DP  RH WIND       PRES   REMARKS
RAPID CTY ARPT CLEAR     52  42  69 CALM      30.25R
PIERRE         SUNNY     53  49  86 W6        30.20R
CUSTER         CLEAR     48  37  65 W3        30.34R
ELLSWORTH AFB  CLEAR     53  43  67 SW6       30.23R
PHILIP         CLEAR     47  44  90 CALM      30.23R
SPEARFISH      FAIR      50  41  71 CALM      30.26R
WINNER         FAIR      55  51  86 SW5       30.23R
$$

SDZ004>011-016>023-039-040-221400-
NORTHEAST SOUTH DAKOTA

CITY           SKY/WX    TMP DP  RH WIND       PRES   REMARKS
ABERDEEN       SUNNY     51  46  83 NW3       30.16R
WATERTOWN      SUNNY     55  52  89 NW6       30.14R
BROOKINGS      SUNNY     53  50  89 CALM      30.15R
SISSETON         N/A     57  50  77 W6        30.09R
$$

SDZ017-020-022-023-036>040-048>070-221400-
SOUTHEAST SOUTH DAKOTA

CITY           SKY/WX    TMP DP  RH WIND       PRES   REMARKS
SIOUX FALLS    SUNNY     58  54  86 CALM      30.15R
HURON          SUNNY     49  47  93 W5        30.17R
CHAMBERLAIN    SUNNY     55  55  97 W5        30.21R
MITCHELL       SUNNY     54  48  80 W7        30.19R
YANKTON        SUNNY     56  53  90 NW9       30.17R
$$

ABBREVIATIONS USED IN REMARKS
   TC - TEMPERATURE IN CELSIUS
  WCI - WIND CHILL INDEX
   HX - HEAT INDEX
  VSB - VISIBILITY





USA.gov is the U.S. government's official web portal to all federal, state and local government web resources and services.